sat.trackr.live / text

‹ back to catalog

STARLINK-11183 [DTC]

NORAD 60189 · 2024-124G

PAYLOAD ACTIVE UNKNOWN

§ Identity

Operator
Country
US
Launch date
2024-07-03
Launch site
AFETR
Launch vehicle
Mass (kg)
RCS (m²)

Purposes: comms

External: N2YO · Heavens-Above · Gunter

§ Orbital elements

Epoch: 2026-05-24T17:38:53.430432Z

Period
91.74 min
Inclination
53.1592°
Eccentricity
0.0001102
Mean motion
15.69714022 rev/d
Perigee alt
359.0 km
Apogee alt
360.5 km
Semi-major
6,737.9 km
B*
9.4244e-6
RAAN
146.6926°
Arg perigee
82.9605°
Mean anomaly
277.1538°
Rev number
10,847

§ Raw data

STARLINK-11183 [DTC]1 60189U 24124G   26144.73534063  .00000553  00000+0  94244-5 0  99952 60189  53.1592 146.6926 0001102  82.9605 277.1538 15.69714022108479

JSON: /api/v1/satellites/60189 · /tle

For live sub-satellite position, see the globe view (requires WebGL).

§ Visibility from observer

Set your observer location to see the next 7 days of passes ≥ 10°. The values pass through the URL so the page stays shareable.

No JS? Fill the form by hand. The geolocation button needs JavaScript.